• Join FlightAware (Why Join?)
  • Login
  • US Flag 
Gobble Gobble! 
11:16AM EST


 

Airport Tracker/Info


-or-


 

Live Flight TrackerFlight Track Log ✈ HAL217 ✈ 24-Apr-2013 ✈ PHKO / KOA - PHNL

Flight Track Log - Related Links

Times and Time Zones

All times are in EDT time to prevent confusion due to time zone crossing. See the HAL217 flight status page for this flight to view local times or setup timezone preferences in your user account.

Time Position Orientation Groundspeed Altitude Reporting Facility
EDT Latitude Longitude Course Direction KTS MPH feet Rate Location/Type
01:06PM 19.7833 -156.0667 303° West 200 230 2,600  Level Honolulu Center
01:07PM 19.8167 -156.1167 305° West 220 253 4,100 1,680 Climbing Honolulu Center
01:08PM 19.8857 -156.2875 301° West  Level FlightAware Approximate
01:08PM 19.8667 -156.1833 309° West 270 311 6,000  Level Honolulu Center
01:09PM 19.9244 -156.3551 301° West  Level FlightAware Approximate
01:09PM 19.9167 -156.2500 309° West 270 311 8,200  Level Honolulu Center
01:10PM 19.9568 -156.4235 317° Northwest  Level FlightAware Approximate
01:10PM 19.9667 -156.3000 317° Northwest 280 322 10,100  Level Honolulu Center
01:11PM 20.0082 -156.4803 303° West  Level FlightAware Approximate
01:11PM 20.0167 -156.3833 303° West 320 368 11,300  Level Honolulu Center
01:12PM 20.0833 -156.4500 317° Northwest 350 403 13,000 1,740 Climbing Honolulu Center
01:13PM 20.1333 -156.5333 303° West 350 403 14,800 1,980 Climbing Honolulu Center
01:14PM 20.2167 -156.6167 317° Northwest 370 426 17,000 1,980 Climbing Honolulu Center
01:15PM 20.2667 -156.7000 303° West 370 426 18,800 1,740 Climbing Honolulu Center
01:16PM 20.3500 -156.7833 317° Northwest 380 437 20,500 1,560 Climbing Honolulu Center
01:17PM 20.4167 -156.8833 305° West 390 449 22,000 720 Climbing Honolulu Center
01:18PM 20.4833 -156.9667 311° West 380 437 22,000 -300 Level Honolulu Center
01:19PM 20.5500 -157.0500 311° West 390 449 21,500 -1,380 Descending Honolulu Center
01:20PM 20.6167 -157.1333 311° West 370 426 19,300 -2,460 Descending Honolulu Center
01:21PM 20.6833 -157.2167 311° West 360 414 16,600 -2,820 Descending Honolulu Center
01:22PM 20.7500 -157.3167 305° West 350 403 13,700 -2,700 Descending Honolulu Center
01:23PM 20.8167 -157.3833 317° Northwest 340 391 11,300 -1,980 Descending Honolulu Center
01:24PM 20.8500 -157.4667 293° West 300 345 9,800 -1,500 Descending Honolulu Center
01:25PM 20.9000 -157.5333 309° West 280 322 8,300 -1,440 Descending Honolulu Center
01:26PM 20.9167 -157.6167 282° West 280 322 6,900 -1,140 Descending Honolulu Center
01:27PM 20.9500 -157.6833 298° West 260 299 6,100 -840 Descending Honolulu Center
01:28PM 20.9833 -157.7500 298° West 230 265 5,300 -840 Descending Honolulu Center
01:29PM 21.0167 -157.8000 306° West 230 265 4,500 -840 Descending Honolulu Center
01:30PM 21.0333 -157.8667 285° West 220 253 3,700 -780 Descending Honolulu Center
01:31PM 21.0667 -157.9167 306° West 220 253 3,000 -360 Descending Honolulu Center
01:32PM 21.1167 -157.9667 317° Northwest 230 265 3,000  Level Honolulu Center